Location: Góry Miechowskie
(50.3599°N, 20.1803°E)
Time: 08:20:06
(UTC+00:00)

A-11 Canister half - All Passes

Search period start: 19 September 2024 00:00
Search period end: 29 September 2024 00:00
Orbit: 1524 x 1684 km, 47.3° (Epoch: 18 September)

Date Brightness Start Highest point End Pass type
(mag) Time Alt. Az. Time Alt. Az. Time Alt. Az.
19 Sep - 09:19:46 10° SSE 09:25:13 17° SE 09:30:43 10° E daylight
19 Sep - 11:19:27 10° SW 11:28:15 47° SSE 11:37:20 10° E daylight
19 Sep - 13:23:05 10° WSW 13:32:33 73° S 13:42:24 10° E daylight
19 Sep - 15:27:45 10° W 15:37:19 68° SSW 15:47:12 10° ESE daylight
19 Sep - 17:32:44 10° W 17:41:25 37° SW 17:50:18 10° SSE visible
19 Sep - 19:41:44 10° WSW 19:44:12 11° WSW 19:46:42 10° SW visible
20 Sep - 08:58:29 10° SSE 09:03:34 16° SE 09:08:40 10° E daylight
20 Sep - 10:57:48 10° SW 11:06:31 45° SSE 11:15:31 10° E daylight
20 Sep - 13:01:20 10° WSW 13:10:47 73° S 13:20:35 10° E daylight
20 Sep - 15:06:00 10° W 15:15:33 69° SSW 15:25:25 10° ESE daylight
20 Sep - 17:10:57 10° W 17:19:41 39° SW 17:28:39 10° SSE visible
20 Sep - 19:19:14 10° WSW 19:22:33 12° WSW 19:25:53 10° SW visible
21 Sep - 08:37:16 10° SSE 08:41:54 15° SE 08:46:35 10° E daylight
21 Sep - 10:36:10 10° SSW 10:44:48 44° SE 10:53:41 10° E daylight
21 Sep - 12:39:36 10° WSW 12:49:00 72° S 12:58:46 10° E daylight
21 Sep - 14:44:14 10° W 14:53:46 70° SSW 15:03:37 10° ESE daylight
21 Sep - 16:49:09 10° W 16:57:57 40° SW 17:07:00 10° SSE daylight
21 Sep - 18:56:55 10° W 19:00:52 13° WSW 19:04:52 10° SSW visible
22 Sep - 08:16:06 10° SSE 08:20:15 14° SE 08:24:27 10° E daylight
22 Sep - 10:14:32 10° SSW 10:23:05 42° SE 10:31:53 10° E daylight
22 Sep - 12:17:52 10° WSW 12:27:14 71° SSE 12:36:58 10° E daylight
22 Sep - 14:22:29 10° W 14:32:00 70° SSW 14:41:51 10° ESE daylight
22 Sep - 16:27:22 10° W 16:36:13 42° SW 16:45:19 10° SSE daylight
22 Sep - 18:34:44 10° W 18:39:12 14° SW 18:43:43 10° SSW visible
23 Sep - 07:55:02 10° SSE 07:58:37 13° ESE 08:02:13 10° E daylight
23 Sep - 09:52:55 10° SSW 10:01:23 40° SE 10:10:04 10° E daylight
23 Sep - 11:56:08 10° WSW 12:05:29 70° SSE 12:15:09 10° E daylight
23 Sep - 14:00:44 10° W 14:10:13 71° SSW 14:20:04 10° ESE daylight
23 Sep - 16:05:35 10° W 16:14:29 43° SW 16:23:39 10° SSE daylight
23 Sep - 18:12:37 10° W 18:17:32 15° SW 18:22:30 10° SSW visible
24 Sep - 07:34:06 10° SE 07:36:58 12° ESE 07:39:51 10° ESE daylight
24 Sep - 09:31:19 10° SSW 09:39:40 39° SE 09:48:14 10° E daylight
24 Sep - 11:34:24 10° WSW 11:43:43 69° SSE 11:53:21 10° E daylight
24 Sep - 13:38:58 10° W 13:48:27 72° S 13:58:16 10° ESE daylight
24 Sep - 15:43:48 10° W 15:52:45 44° SSW 16:01:58 10° SE daylight
24 Sep - 17:50:34 10° W 17:55:51 16° SW 18:01:13 10° SSW visible
25 Sep - 07:13:29 10° SE 07:15:20 11° ESE 07:17:11 10° ESE daylight
25 Sep - 09:09:43 10° SSW 09:17:58 37° SE 09:26:25 10° E daylight
25 Sep - 11:12:40 10° WSW 11:21:57 68° SSE 11:31:33 10° E daylight
25 Sep - 13:17:13 10° W 13:26:40 73° S 13:36:28 10° ESE daylight
25 Sep - 15:22:01 10° W 15:31:01 46° SSW 15:40:16 10° SE daylight
25 Sep - 17:28:33 10° W 17:34:10 17° SW 17:39:54 10° SSW visible
26 Sep - 08:48:07 10° SSW 08:56:16 36° SE 09:04:35 10° E daylight
26 Sep - 10:50:57 10° WSW 11:00:12 67° SSE 11:09:45 10° E daylight
26 Sep - 12:55:28 10° W 13:04:54 73° S 13:14:40 10° ESE daylight
26 Sep - 15:00:15 10° W 15:09:16 47° SSW 15:18:33 10° SE daylight
26 Sep - 17:06:34 10° W 17:12:29 18° SW 17:18:31 10° SSW visible
27 Sep - 08:26:32 10° SSW 08:34:34 34° SE 08:42:45 10° E daylight
27 Sep - 10:29:13 10° WSW 10:38:26 66° SSE 10:47:57 10° E daylight
27 Sep - 12:33:43 10° W 12:43:07 74° S 12:52:52 10° ESE daylight
27 Sep - 14:38:30 10° W 14:47:32 49° SSW 14:56:51 10° SE daylight
27 Sep - 16:44:37 10° W 16:50:48 19° SW 16:57:07 10° S visible
28 Sep - 08:04:57 10° SSW 08:12:52 33° SE 08:20:56 10° E daylight
28 Sep - 10:07:30 10° WSW 10:16:41 65° SSE 10:26:09 10° E daylight
28 Sep - 12:11:57 10° W 12:21:21 74° S 12:31:05 10° ESE daylight
28 Sep - 14:16:43 10° W 14:25:47 50° SSW 14:35:08 10° SE daylight
28 Sep - 16:22:42 10° W 16:29:07 20° SW 16:35:41 10° S daylight
